Tracking 19575 objects as of 18-Feb-2019
HD Live streaming from Space Station
objects crossing your sky now

COSMOS 2091

Track COSMOS 2091 now!
10-day predictions
COSMOS 2091 is classified as:


NORAD ID: 20736
Int'l Code: 1990-070B
Perigee: 1,416.9 km
Apogee: 1,422.7 km
Inclination: 82.6 °
Period: 114.1 minutes
Semi major axis: 7790 km
RCS: 1.144 m2 (large)
Launch date: August 8, 1990
Source: Commonwealth of Independent States (former USSR) (CIS)
Launch site: PLESETSK MISSILE AND SPACE COMPLEX (PKMTR)
aabbcc
Your satellite tracking list
Your tracking list is empty




NASA's NSSDC Master Catalog

Two Line Element Set (TLE):
1 20736U 90070B   19048.89315608 +.00000033 +00000-0 +12335-3 0  9999
2 20736 082.5745 236.5996 0003717 062.8034 054.9511 12.62487829314598
Source of the keplerian elements: AFSPC